St. Petersburg Airport, FL

1:16 PM EDT on March 25, 2017 (GMT -0400)
Saint Petersburg-Clearwater International

Weather History for KPIE - March, 2014

Change the Weather History Date:

Monday, March 17, 2014

  Actual Average Record
Temperature  
Mean Temperature 72 °F -  
Max Temperature 75 °F 75 °F 87 °F (2002)
Min Temperature 69 °F 60 °F 46 °F (1954)
Cooling Degree Days 7    
Growing Degree Days 22 (Base 50)    
Moisture  
Dew Point 69 °F    
Average Humidity 90    
Maximum Humidity 96    
Minimum Humidity 68    
Precipitation  
Precipitation 1.24 in - - ()
Sea Level Pressure  
Sea Level Pressure 29.71 in    
Wind  
Wind Speed 17 mph (South)    
Max Wind Speed 30 mph    
Max Gust Speed 39 mph    
Visibility 6 miles    
Events Rain , Thunderstorm    
Averages and records for this station are not official NWS values.
T = Trace of Precipitation, MM = Missing Value Source: NWS Daily Summary

Daily Weather History Graph

Daily Weather History Graph

Search for Another Location

Airport or City:

Trip Planner

Search our weather history database for the weather conditions in past years. The results will help you decide how hot, cold, wet, or windy it might be!

Date:

Astronomy

Mar. 17, 2014 Rise Set
Actual Time 7:38 AM EDT 7:40 PM EDT
Civil Twilight 7:14 AM EDT 8:03 PM EDT
Nautical Twilight 6:47 AM EDT 8:31 PM EDT
Astronomical Twilight 6:20 AM EDT 8:58 PM EDT
Moon 8:47 PM EDT (3/17) 7:59 AM EDT (3/17)
Length of Visible Light 12h 49m
Length of Day
12h 02m
Full, 99% of the Moon is Illuminated
Mar 17
Full
Mar 23
Last Quarter
Mar 30
New
Apr 7
First Quarter
Apr 15
Full

Hourly Weather History & Observations

Time (EDT) Temp. Dew Point Humidity Pressure Visibility Wind Dir Wind Speed Gust Speed Precip Events Conditions
12:53 AM 73.0 °F 64.0 °F 73% 29.78 in 10.0 mi South 17.3 mph - N/A   Clear
1:53 AM 73.0 °F 64.0 °F 73% 29.74 in 10.0 mi South 19.6 mph 28.8 mph N/A   Mostly Cloudy
2:37 AM 73.9 °F 63.0 °F 68% 29.73 in 10.0 mi SSE 17.3 mph 23.0 mph N/A   Overcast
2:53 AM 73.9 °F 63.0 °F 68% 29.73 in 10.0 mi South 16.1 mph 24.2 mph N/A   Overcast
3:50 AM 73.4 °F 64.4 °F 73% 29.72 in 10.0 mi South 17.3 mph 24.2 mph N/A   Overcast
3:53 AM 73.9 °F 64.9 °F 73% 29.73 in 10.0 mi South 17.3 mph 24.2 mph N/A   Overcast
4:53 AM 73.9 °F 66.9 °F 79% 29.69 in 10.0 mi South 19.6 mph 27.6 mph N/A   Overcast
5:03 AM 73.9 °F 66.9 °F 79% 29.69 in 10.0 mi South 20.7 mph 29.9 mph N/A   Overcast
5:53 AM 73.9 °F 68.0 °F 82% 29.68 in 10.0 mi South 18.4 mph 28.8 mph N/A   Overcast
6:18 AM 73.9 °F 68.0 °F 82% 29.69 in 10.0 mi South 21.9 mph 31.1 mph N/A   Scattered Clouds
6:48 AM 73.4 °F 69.8 °F 88% 29.69 in 10.0 mi South 23.0 mph 33.4 mph N/A   Mostly Cloudy
6:53 AM 73.9 °F 69.1 °F 85% 29.69 in 10.0 mi South 19.6 mph 29.9 mph N/A   Mostly Cloudy
7:53 AM 73.9 °F 69.1 °F 85% 29.71 in 10.0 mi South 18.4 mph 26.5 mph N/A   Mostly Cloudy
8:53 AM 73.9 °F 69.1 °F 85% 29.71 in 8.0 mi South 15.0 mph - N/A   Mostly Cloudy
9:02 AM 75.0 °F 69.1 °F 82% 29.71 in 8.0 mi South 17.3 mph - N/A   Mostly Cloudy
9:53 AM 75.0 °F 69.1 °F 82% 29.73 in 8.0 mi South 16.1 mph - N/A   Overcast
10:53 AM 75.0 °F 70.0 °F 84% 29.75 in 8.0 mi South 19.6 mph 29.9 mph N/A   Overcast
11:06 AM 75.0 °F 70.0 °F 84% 29.75 in 8.0 mi South 19.6 mph 31.1 mph N/A Thunderstorm Overcast
11:21 AM 75.0 °F 70.0 °F 84% 29.75 in 6.0 mi South 20.7 mph 28.8 mph 0.00 in Rain , Thunderstorm Light Thunderstorms and Rain
11:38 AM 73.9 °F 70.0 °F 87% 29.75 in 6.0 mi South 19.6 mph 27.6 mph 0.00 in Rain , Thunderstorm Light Thunderstorms and Rain
11:53 AM 73.9 °F 71.1 °F 91% 29.76 in 3.0 mi South 17.3 mph 33.4 mph 0.03 in Rain , Thunderstorm Light Thunderstorms and Rain
12:46 PM 73.9 °F 72.0 °F 93% 29.74 in 2.5 mi South 20.7 mph 29.9 mph 0.12 in Rain , Thunderstorm Thunderstorms and Rain
12:53 PM 73.9 °F 72.0 °F 93% 29.74 in 3.0 mi South 25.3 mph 32.2 mph 0.13 in Rain , Thunderstorm Light Thunderstorms and Rain
1:05 PM 73.9 °F 72.0 °F 93% 29.74 in 3.0 mi South 21.9 mph 29.9 mph 0.03 in Rain Light Rain
1:09 PM 73.9 °F 72.0 °F 93% 29.74 in 3.0 mi South 19.6 mph 29.9 mph 0.04 in Rain , Thunderstorm Light Thunderstorms and Rain
1:19 PM 73.9 °F 72.0 °F 93% 29.74 in 3.0 mi South 19.6 mph - 0.06 in Rain , Thunderstorm Thunderstorms and Rain
1:21 PM 73.9 °F 72.0 °F 93% 29.74 in 2.5 mi South 17.3 mph - 0.07 in Rain , Thunderstorm Thunderstorms and Rain
1:49 PM 73.4 °F 71.6 °F 94% 29.71 in 2.5 mi South 23.0 mph 31.1 mph 0.14 in Rain Light Rain
1:53 PM 73.9 °F 72.0 °F 93% 29.70 in 2.0 mi South 24.2 mph 34.5 mph 0.15 in Rain , Thunderstorm Rain
2:14 PM 73.9 °F 72.0 °F 93% 29.69 in 1.2 mi South 20.7 mph 31.1 mph 0.11 in Rain Heavy Rain
2:19 PM 73.9 °F 72.0 °F 93% 29.70 in 1.2 mi South 29.9 mph 39.1 mph 0.15 in Rain , Thunderstorm Heavy Rain
2:36 PM 73.0 °F 71.1 °F 93% 29.69 in 1.2 mi SSW 25.3 mph 34.5 mph 0.31 in Rain , Thunderstorm Heavy Thunderstorms and Rain
2:45 PM 70.0 °F 68.0 °F 93% 29.70 in 3.0 mi South 23.0 mph 38.0 mph 0.35 in Rain , Thunderstorm Thunderstorms and Rain
2:53 PM 70.0 °F 68.0 °F 93% 29.72 in 3.0 mi South 23.0 mph 29.9 mph 0.38 in Rain , Thunderstorm Rain
2:55 PM 69.1 °F 68.0 °F 96% 29.72 in 4.0 mi South 23.0 mph 29.9 mph 0.00 in Rain , Thunderstorm Light Rain
3:02 PM 69.1 °F 66.9 °F 93% 29.72 in 5.0 mi South 19.6 mph 28.8 mph 0.02 in Rain Rain
3:40 PM 69.1 °F 66.9 °F 93% 29.71 in 2.5 mi SW 16.1 mph - 0.10 in Rain Rain
3:51 PM 69.8 °F 66.2 °F 88% 29.70 in 2.5 mi SSW 12.7 mph - 0.13 in Rain Rain
3:53 PM 69.1 °F 66.9 °F 93% 29.70 in 2.5 mi SSW 13.8 mph - 0.14 in Rain Rain
4:02 PM 69.1 °F 66.9 °F 93% 29.71 in 5.0 mi SW 10.4 mph - 0.01 in Rain Light Rain
4:04 PM 69.1 °F 68.0 °F 96% 29.71 in 5.0 mi SW 11.5 mph - 0.01 in Rain Light Rain
4:18 PM 69.1 °F 68.0 °F 96% 29.71 in 4.0 mi SSW 10.4 mph - 0.04 in Rain Light Rain
4:28 PM 69.1 °F 68.0 °F 96% 29.71 in 5.0 mi SSW 11.5 mph - 0.05 in Rain Light Rain
4:40 PM 69.1 °F 68.0 °F 96% 29.71 in 2.0 mi SSW 11.5 mph - 0.08 in Rain Light Rain
4:42 PM 69.1 °F 68.0 °F 96% 29.71 in 2.0 mi SSW 9.2 mph - 0.08 in Rain Light Rain
4:53 PM 69.1 °F 68.0 °F 96% 29.70 in 2.0 mi SSW 10.4 mph - 0.09 in Rain Light Rain
4:55 PM 69.1 °F 68.0 °F 96% 29.70 in 8.0 mi SW 12.7 mph - 0.00 in Rain Light Rain
5:49 PM 69.8 °F 68.0 °F 94% 29.70 in 10.0 mi SSW 9.2 mph - 0.00 in Thunderstorm Overcast
5:53 PM 69.1 °F 68.0 °F 96% 29.70 in 10.0 mi SSW 9.2 mph - 0.00 in Thunderstorm Overcast
6:04 PM 69.1 °F 68.0 °F 96% 29.70 in 9.0 mi SSW 9.2 mph - 0.00 in Rain Light Rain
6:53 PM 69.1 °F 68.0 °F 96% 29.70 in 10.0 mi SSW 3.5 mph - 0.02 in   Overcast
6:55 PM 69.1 °F 68.0 °F 96% 29.70 in 10.0 mi South 4.6 mph - N/A   Overcast
7:53 PM 69.1 °F 68.0 °F 96% 29.68 in 10.0 mi ESE 5.8 mph - N/A   Overcast
8:00 PM 69.1 °F 68.0 °F 96% 29.68 in 10.0 mi Calm Calm - N/A   Overcast
8:17 PM 69.1 °F 66.9 °F 93% 29.70 in 10.0 mi SSW 4.6 mph - N/A Thunderstorm Thunderstorm
8:41 PM 70.0 °F 66.9 °F 90% 29.66 in 10.0 mi SSE 12.7 mph - 0.01 in   Overcast
8:53 PM 70.0 °F 66.9 °F 90% 29.66 in 10.0 mi SSE 8.1 mph - 0.01 in   Overcast
9:07 PM 70.0 °F 68.0 °F 93% 29.66 in 8.0 mi South 8.1 mph - 0.01 in Rain Light Rain
9:18 PM 70.0 °F 68.0 °F 93% 29.66 in 10.0 mi South 6.9 mph - 0.01 in Rain , Thunderstorm Light Thunderstorms and Rain
9:28 PM 70.0 °F 68.0 °F 93% 29.67 in 6.0 mi South 4.6 mph - 0.03 in Rain , Thunderstorm Thunderstorms and Rain
9:42 PM 71.1 °F 69.1 °F 93% 29.68 in 1.8 mi SSW 5.8 mph - 0.15 in Rain Heavy Rain
9:47 PM 71.6 °F 69.8 °F 94% 29.68 in 3.0 mi South 5.8 mph - 0.19 in Rain , Thunderstorm Heavy Rain
9:53 PM 71.1 °F 69.1 °F 93% 29.67 in 3.0 mi South 12.7 mph - 0.21 in Rain , Thunderstorm Light Rain
10:05 PM 71.1 °F 70.0 °F 96% 29.68 in 5.0 mi South 16.1 mph 23.0 mph 0.04 in Rain Light Rain
10:19 PM 72.0 °F 69.1 °F 91% 29.66 in 5.0 mi South 16.1 mph - 0.06 in Rain , Thunderstorm Rain
10:40 PM 72.0 °F 69.1 °F 91% 29.67 in 10.0 mi South 13.8 mph - 0.07 in   Mostly Cloudy
10:53 PM 71.1 °F 69.1 °F 93% 29.68 in 8.0 mi SSW 13.8 mph - 0.07 in Rain Light Rain
11:44 PM 71.1 °F 68.0 °F 90% 29.68 in 9.0 mi SSW 10.4 mph - 0.01 in   Overcast
11:53 PM 71.1 °F 69.1 °F 93% 29.68 in 9.0 mi SW 12.7 mph - 0.01 in   Overcast